Weather History for Romorantin, France

Change the Weather History Date:

Wednesday, February 20, 2013

  Actual Average (LFOT) Record (LFOT)
Temperature  
Mean Temperature 36 °F -  
Max Temperature 50 °F 47 °F 68 °F (1998)
Min Temperature 23 °F 35 °F 26 °F (2012)
Degree Days  
Heating Degree Days 28    
Moisture  
Dew Point 28 °F    
Average Humidity 78    
Maximum Humidity 100    
Minimum Humidity 54    
Precipitation  
Precipitation 0.00 in - - ()
Sea Level Pressure  
Sea Level Pressure 30.02 in    
Wind  
Wind Speed 3 mph ()    
Max Wind Speed 12 mph    
Max Gust Speed -    
Visibility 2.6 miles    
Events      
Averages and records for this station are not official NWS values.
T = Trace of Precipitation, MM = Missing Value Source: Averaged Metar Reports

Daily Weather History Graph

Daily Weather History Graph

Search for Another Location

Airport:

Trip Planner

Search our weather history database for the weather conditions in past years. The results will help you decide how hot, cold, wet, or windy it might be!

Date:

Astronomy

Feb. 20, 2013 Rise Set
Actual Time 7:49 AM CET 6:24 PM CET
Civil Twilight 7:18 AM CET 6:56 PM CET
Nautical Twilight 6:43 AM CET 7:31 PM CET
Astronomical Twilight 6:07 AM CET 8:07 PM CET
Moon 1:20 PM CET (2/20) 4:10 AM CET (2/20)
Length of Visible Light 11h 37m
Length of Day
10h 35m
Waxing Gibbous, 74% of the Moon is Illuminated
Feb 20
Waxing Gibbous
Feb 25
Full
Mar 4
Last Quarter
Mar 11
New
Mar 19
First Quarter

Hourly Weather History & Observations

Time (CET) Temp. Windchill Dew Point Humidity Pressure Visibility Wind Dir Wind Speed Gust Speed Precip Events Conditions
12:00 AM 28.4 °F - 26.6 °F 93% 30.01 in - Calm Calm - N/A   Unknown
2:00 AM 26.6 °F - 24.8 °F 93% 30.01 in - Calm Calm - N/A   Unknown
3:00 AM 23.0 °F - 23.0 °F 100% 30.01 in - Calm Calm - N/A   Unknown
4:00 AM 23.0 °F - 23.0 °F 100% 30.01 in - Calm Calm - N/A   Unknown
5:00 AM 24.8 °F - 23.0 °F 93% 30.01 in - Calm Calm - N/A   Unknown
6:00 AM 23.0 °F - 23.0 °F 100% 30.01 in 2.5 mi Calm Calm - N/A   Mist
7:00 AM 23.0 °F - 21.2 °F 93% 30.01 in 1.9 mi Calm Calm - N/A   Mist
8:00 AM 23.0 °F - 23.0 °F 100% 30.01 in 2.5 mi NNE 2.3 mph - N/A   Mist
9:00 AM 26.6 °F - 26.6 °F 100% 30.04 in 2.5 mi Variable 2.3 mph - N/A   Mist
10:00 AM 35.6 °F 31.7 °F 33.8 °F 93% 30.04 in 3.1 mi NE 4.6 mph - N/A   Unknown
11:00 AM 41.0 °F 38.0 °F 33.8 °F 76% 30.04 in 3.1 mi NE 4.6 mph - N/A   Unknown
1:00 PM 48.2 °F - 33.8 °F 58% 30.04 in - NE 9.2 mph - N/A   Clear
2:00 PM 50.0 °F - 33.8 °F 54% 30.01 in - NE 10.4 mph - N/A   Clear
3:00 PM 50.0 °F - 33.8 °F 54% 30.01 in - ENE 11.5 mph - N/A   Clear
4:00 PM 50.0 °F - 33.8 °F 54% 30.01 in - NE 11.5 mph - N/A   Clear
5:00 PM 48.2 °F - 32.0 °F 54% 30.01 in - NE 10.4 mph - N/A   Clear
6:00 PM 44.6 °F 39.2 °F 32.0 °F 61% 30.01 in - ENE 10.4 mph - N/A   Unknown
7:00 PM 41.0 °F 35.2 °F 30.2 °F 65% 30.04 in - NE 9.2 mph - N/A   Unknown
8:00 PM 39.2 °F 34.2 °F 30.2 °F 70% 30.04 in - NE 6.9 mph - N/A   Unknown
9:00 PM 37.4 °F 31.4 °F 28.4 °F 70% 30.04 in - NE 8.1 mph - N/A   Unknown
10:00 PM 35.6 °F 29.9 °F 26.6 °F 70% 30.04 in - NE 6.9 mph - N/A   Unknown
11:00 PM 33.8 °F 26.4 °F 26.6 °F 75% 30.04 in - ENE 9.2 mph - N/A   Unknown